Regional Weather Roundup
Issued by NWS

Home | Current Version | Previous Version | Graphics & Text | Print | Product List | Glossary On
Versions: 1 2 3 4 5 6 7 8 9 10 11 12 13 14 15 16 17 18 19 20 21 22 23 24 25 26 27 28 29 30 31 32 33 34 35 36 37 38 39 40 41 42 43 44 45 46 47 48 49 50
000
ASUS43 KDMX 230506
RWRIA

WEATHER ROUNDUP FOR IOWA
NATIONAL WEATHER SERVICE DES MOINES IA
1200 AM CDT SUN APR 23 2017

NOTE: "FAIR" INDICATES FEW OR NO CLOUDS BELOW 12,000 FEET WITH NO
SIGNIFICANT WEATHER AND/OR OBSTRUCTIONS TO VISIBILITY.

* - THESE STATIONS ARE NOT NWS STATIONS...THUS NOT UNDER NWS
QUALITY CONTROL.  THEY ALSO DO NOT REPORT WEATHER SUCH
AS PRECIPITATION OR FOG.

IAZ001>003-012>014-020>022-031>034-043>046-230600-
   NORTHWEST IOWA

CITY           SKY/WX    TMP DP  RH WIND       PRES   REMARKS
CARROLL *      PTCLDY    43  39  87 W5        30.17F
CHEROKEE *     CLEAR     45  39  80 S3        30.17F
DENISON *      CLEAR     43  36  75 CALM      30.20S
LE MARS *      CLEAR     43  37  81 S3        30.18F
ORANGE CITY *  CLEAR     48  36  61 SW8       30.17S
SHELDON *      CLEAR     50  34  53 SW7       30.15S
SIOUX CITY     CLEAR     49  35  58 CALM      30.19R
SPENCER        CLEAR     42  35  76 W8        30.16S
STORM LAKE *   CLEAR     55  30  38 W9        30.18S
$$

IAZ055>058-069>071-079>083-090>094-230600-
   SOUTHWEST IOWA

CITY           SKY/WX    TMP DP  RH WIND       PRES   REMARKS
ATLANTIC *     CLEAR     41  36  81 CALM      30.19S
AUDUBON *      CLEAR     37  34  87 CALM      30.19F
CLARINDA *     CLEAR     39  37  93 CALM      30.22S
COUNCIL BLFS * CLEAR     54  28  37 SE3       30.19F
CRESTON *      CLEAR     52  27  37 CALM      30.20S
HARLAN  *      CLEAR     45  36  70 CALM      30.22S
LAMONI         CLEAR     47  31  53 CALM      30.19S
RED OAK *      CLEAR     41  34  75 CALM      30.20S
SHENANDOAH *   CLEAR     43  36  75 CALM      30.21S
$$

IAZ047>049-059>061-072>074-084-230600-
   CENTRAL IOWA

CITY           SKY/WX    TMP DP  RH WIND       PRES   REMARKS
AMES           CLEAR     44  38  79 SW3       30.17F
ANKENY *       CLEAR     45  34  65 CALM      30.18F
BOONE *        CLEAR     54  28  37 S5        30.16F
CHARITON *     CLEAR     48  30  49 CALM      30.18S
DES MOINES     CLEAR     53  30  41 CALM      30.18S
GRINNELL*      CLEAR     48  29  47 CALM      30.18F
KNOXVILLE *    CLEAR     50  28  43 CALM      30.17S
MARSHALLTOWN   CLEAR     45  33  63 S3        30.15F
NEWTON *       CLEAR     48  28  46 CALM      30.16F
PELLA *        CLEAR     49  27  42 CALM      30.19S
PERRY *          N/A     52  27  38 CALM      30.18S
$$

IAZ004>006-015-016-023>025-035-036-230600-
   NORTH CENTRAL IOWA

CITY           SKY/WX    TMP DP  RH WIND       PRES   REMARKS
ALGONA *       CLEAR     48  37  66 SW8       30.15S
CLARION *      CLEAR     46  37  71 S5        30.16S
ESTHERVILLE    CLEAR     45  36  70 SW8       30.14F
FORT DODGE *   CLEAR     43  34  70 CALM      30.17S
MASON CITY     CLEAR     46  34  62 S6        30.16S
FOREST CITY *    N/A     43  36  75 CALM      30.15S
WEBSTER CITY * CLEAR     46  36  66 S8        30.14F
IOWA FALLS *     N/A     50  32  50 S8        30.17S
$$

IAZ007>011-017>019-026>030-037>042-050>054-066-230600-
   NORTHEAST IOWA

CITY           SKY/WX    TMP DP  RH WIND       PRES   REMARKS
CEDAR RAPIDS   CLEAR     49  29  46 CALM      30.16F
CHARLES CITY * CLEAR     52  30  43 S7        30.15S
CLINTON *      CLEAR     47  34  60 N6        30.16F
DECORAH *      CLEAR     52  30  43 S5        30.13S
DUBUQUE        CLEAR     43  35  73 CALM      30.16F
MONTICELLO *   CLEAR     41  36  81 CALM      30.16S
OELWEIN *      CLEAR     48  34  57 S5        30.16F
WATERLOO       CLEAR     45  36  70 CALM      30.15F
$$

IAZ064-065-067-068-078-230600-
   EAST CENTRAL IOWA

CITY           SKY/WX    TMP DP  RH WIND       PRES   REMARKS
DAVENPORT      CLEAR     47  32  56 N5        30.16F
IOWA CITY      CLEAR     44  34  67 CALM      30.18S
MT. PLEASANT * CLEAR     47  32  56 N6        30.17R
MUSCATINE *    CLEAR     46  32  57 CALM      30.17S
QUAD CITIES    CLEAR     44  37  76 CALM      30.16S
$$

IAZ062-063-075>077-085>089-095>099-230600-
   SOUTHEAST IOWA

CITY           SKY/WX    TMP DP  RH WIND       PRES   REMARKS
BURLINGTON     CLEAR     46  36  68 CALM      30.16R
FAIRFIELD *    CLEAR     45  30  57 NE5       30.17R
FORT MADISON * CLEAR     46  34  61 SE3       30.17R
KEOKUK *       CLEAR     50  36  57 NE5       30.15S
OSKALOOSA *      N/A     48  29  48 CALM      30.18S
CENTERVILLE *    N/A     48  30  49 CALM      30.19S
OTTUMWA        CLEAR     48  28  46 N5        30.17S
WASHINGTON *   CLEAR     48  32  53 NE5       30.18S
$$

ABBREVIATIONS USED IN REMARKS
   TC - TEMPERATURES IN CELSIUS
  WCI - WIND CHILL INDEX
   HX - HEAT INDEX
  VSB - VISIBILITY
$$




USA.gov is the U.S. government's official web portal to all federal, state and local government web resources and services.